Weather History for Lafayette, IN

Change the Weather History Date:

Friday, October 14, 2011

  Actual Average Record
Temperature  
Mean Temperature 56 °F 55 °F  
Max Temperature 64 °F 66 °F 85 °F (1989)
Min Temperature 48 °F 44 °F 26 °F (1979)
Degree Days  
Heating Degree Days 9 11  
Month to date heating degree days 58 123  
Since 1 July heating degree days 157 208  
Cooling Degree Days 0 0  
Month to date cooling degree days 14 13  
Year to date cooling degree days 1246 978  
Growing Degree Days 6 (Base 50)    
Moisture  
Dew Point 43 °F    
Average Humidity 66    
Maximum Humidity 86    
Minimum Humidity 46    
Precipitation  
Precipitation T in 0.08 in 1.01 in (1985)
Month to date precipitation 0.31 1.34  
Year to date precipitation 33.48 29.55  
Sea Level Pressure  
Sea Level Pressure 29.66 in    
Wind  
Wind Speed 13 mph (WNW)    
Max Wind Speed 24 mph    
Max Gust Speed 37 mph    
Visibility 10 miles    
Events Rain , Thunderstorm    
T = Trace of Precipitation, MM = Missing Value Source: NWS Daily Summary

Daily Weather History Graph

Daily Weather History Graph

Search for Another Location

Airport:

Trip Planner

Search our weather history database for the weather conditions in past years. The results will help you decide how hot, cold, wet, or windy it might be!

Date:

Astronomy

Oct. 14, 2011 Rise Set
Actual Time 7:57 AM EDT 7:09 PM EDT
Civil Twilight 7:29 AM EDT 7:37 PM EDT
Nautical Twilight 6:58 AM EDT 8:08 PM EDT
Astronomical Twilight 6:26 AM EDT 8:40 PM EDT
Moon 8:22 PM EDT (10/14) 10:26 AM EDT (10/14)
Length of Visible Light 12h 07m
Length of Day
11h 12m
Waning Gibbous, 94% of the Moon is Illuminated
Oct 14
Waning Gibbous
Oct 19
Last Quarter
Oct 26
New
Nov 2
First Quarter
Nov 10
Full

Hourly Weather History & Observations

Time (EDT) Temp. Dew Point Humidity Pressure Visibility Wind Dir Wind Speed Gust Speed Precip Events Conditions
12:54 AM 55.0 °F 46.9 °F 74% 29.55 in 10.0 mi WNW 15.0 mph - N/A   Clear
1:54 AM 53.1 °F 46.0 °F 77% 29.56 in 10.0 mi WNW 10.4 mph - N/A   Clear
2:54 AM 51.1 °F 45.0 °F 80% 29.58 in 10.0 mi West 10.4 mph - N/A   Clear
3:54 AM 48.9 °F 44.1 °F 83% 29.58 in 10.0 mi West 9.2 mph - N/A   Clear
4:54 AM 50.0 °F 44.1 °F 80% 29.58 in 10.0 mi West 10.4 mph - N/A   Clear
5:54 AM 48.9 °F 44.1 °F 83% 29.60 in 10.0 mi West 11.5 mph - N/A   Clear
6:54 AM 48.9 °F 44.1 °F 83% 29.61 in 10.0 mi West 9.2 mph - N/A   Clear
7:54 AM 48.0 °F 43.0 °F 83% 29.62 in 10.0 mi West 8.1 mph - N/A   Clear
8:54 AM 50.0 °F 44.1 °F 80% 29.64 in 10.0 mi West 5.8 mph - N/A   Clear
9:54 AM 52.0 °F 45.0 °F 77% 29.64 in 10.0 mi West 10.4 mph 17.3 mph N/A   Mostly Cloudy
10:54 AM 52.0 °F 45.0 °F 77% 29.66 in 10.0 mi West 11.5 mph - 0.00 in Rain Light Rain
11:54 AM 57.9 °F 46.0 °F 65% 29.66 in 10.0 mi West 13.8 mph 19.6 mph 0.00 in   Overcast
12:54 PM 59.0 °F 42.1 °F 53% 29.67 in 10.0 mi WNW 16.1 mph 26.5 mph N/A   Partly Cloudy
1:54 PM 60.1 °F 43.0 °F 53% 29.67 in 10.0 mi WNW 16.1 mph 23.0 mph N/A   Overcast
2:54 PM 63.0 °F 42.1 °F 46% 29.66 in 10.0 mi West 21.9 mph 31.1 mph N/A   Mostly Cloudy
3:54 PM 61.0 °F 41.0 °F 48% 29.67 in 10.0 mi WNW 18.4 mph 29.9 mph N/A   Mostly Cloudy
4:54 PM 61.0 °F 41.0 °F 48% 29.67 in 10.0 mi West 13.8 mph 25.3 mph N/A   Mostly Cloudy
5:06 PM 60.8 °F 41.0 °F 48% 29.67 in 10.0 mi WNW 17.3 mph 27.6 mph N/A Thunderstorm Mostly Cloudy
5:26 PM 60.8 °F 42.8 °F 52% 29.68 in 10.0 mi WNW 10.4 mph 21.9 mph N/A   Overcast
5:54 PM 61.0 °F 39.9 °F 46% 29.69 in 10.0 mi WNW 23.0 mph 28.8 mph N/A   Overcast
6:54 PM 59.0 °F 41.0 °F 51% 29.70 in 10.0 mi WNW 18.4 mph 28.8 mph N/A   Scattered Clouds
7:54 PM 57.0 °F 41.0 °F 55% 29.72 in 10.0 mi West 13.8 mph - N/A   Partly Cloudy
8:54 PM 54.0 °F 42.1 °F 64% 29.74 in 10.0 mi West 12.7 mph - N/A   Clear
9:54 PM 53.1 °F 41.0 °F 64% 29.75 in 10.0 mi West 13.8 mph - N/A   Clear
10:54 PM 53.1 °F 41.0 °F 64% 29.75 in 10.0 mi WNW 12.7 mph - N/A   Clear
11:54 PM 52.0 °F 41.0 °F 66% 29.76 in 10.0 mi West 12.7 mph 20.7 mph N/A   Clear